Location: Skanderborg
(56.0313°N, 9.9317°E)
Time: 00:07:05
(UTC+00:00)

ERBS - Pass Details

Date: 15 August 2020
Orbit: 413 x 420 km, 57.0° (Epoch: 23 September)

Event Time Altitude Azimuth Distance (km) Brightness Sun altitude
Rises 21:23:45 0° 288° (WNW) 2,360 6.8 -15.8°
Reaches altitude 10° 21:25:52 10° 284° (WNW) 1,494 5.7 -16.0°
Maximum altitude 21:29:08 56° 205° (SSW) 500 2.4 -16.2°
Enters shadow 21:29:50 44° 157° (SSE) 584 2.5 -16.3°
